Starlink 5008

operational
NORAD ID: 53927 Int'l Des: 2022-119 Owner: SPXS Country: US Constellation: starlink
LEOCIRCULAR

About Starlink 5008

Description loading...

Live Position

Loading 3D Globe...

Upcoming Passes

Altitude History

Altitude vs Time

uPlot chart will show altitude changes over time

Two-Line Element Set

1 53927U 22119AT 25304.33336806 .00531420 12856-3 12361-2 0 9992
2 53927 53.1791 69.3449 0004974 349.0736 84.8482 15.96519229 5968
Epoch: Oct 31, 2025 • Age: 5 hours

Current Status

Altitude 298.3 km
Velocity 7.73 km/s
Sub-Earth Point -48.54°S, 129.48°E
Launch Date Sep 24, 2022
Age 3 years
Type internet

Technical Details

Classification Payload
Mass 305.00 kg
Dry Mass 290.00 kg
Total Mass 305.00 kg
Length 0.20 m
Diameter 2.80 m
Span 9.00 m
Shape Box + pan
Manufacturer SPXS
Bus Type Starlink
Phase Status In Orbit
Owner/State SPXS/US

Large Constellations

Loading constellations...